2023/05/16 00:00:00, 0.1,10.6
2023/05/16 00:10:00, 0.1,10.6
2023/05/16 00:20:00, 0.1,10.7
2023/05/16 00:30:00, 0.1,10.9
2023/05/16 00:40:00, 0.1,10.9
2023/05/16 00:50:00, 0.1,10.7
2023/05/16 01:00:00, 0.1,10.7
2023/05/16 01:10:00, 0.1,10.8
2023/05/16 01:20:00, 0.1,10.8
2023/05/16 01:30:00, 0.1,10.9
2023/05/16 01:40:00, 0.1,10.9
2023/05/16 01:50:00, 0.1,10.7
2023/05/16 02:00:00, 0.1,10.8
2023/05/16 02:10:00, 0.1,10.7
2023/05/16 02:20:00, 0.1,10.7
2023/05/16 02:30:00, 0.1,10.9
2023/05/16 02:40:00, 0.2,11.0
2023/05/16 02:50:00, 0.3,10.9
2023/05/16 03:00:00, 0.4,10.8
2023/05/16 03:10:00, 0.4,11.3
2023/05/16 03:20:00, 0.5,11.2
2023/05/16 03:30:00, 0.4,10.9
2023/05/16 03:40:00, 0.4,11.3
2023/05/16 03:50:00, 0.6,11.4
2023/05/16 04:00:00, 0.6,11.3
2023/05/16 04:10:00, 0.5,11.3
2023/05/16 04:20:00, 0.6,11.5
2023/05/16 04:30:00, 0.6,11.6
2023/05/16 04:40:00, 0.5,11.4
2023/05/16 04:50:00, 0.5,11.3
2023/05/16 05:00:00, 0.5,11.3
2023/05/16 05:10:00, 0.9,11.2
2023/05/16 05:20:00, 0.0,11.3
2023/05/16 05:30:00,---,11.6
2023/05/16 05:40:00, 0.0,11.6
2023/05/16 05:50:00, 0.0,11.6
2023/05/16 06:00:00, 0.0,11.7
2023/05/16 06:10:00, 0.0,11.7
2023/05/16 06:20:00,---,12.4
2023/05/16 06:30:00, 1.0,12.5
2023/05/16 06:40:00, 0.9,13.0
2023/05/16 06:50:00,---,13.4
2023/05/16 07:00:00, 0.4,14.6
2023/05/16 07:10:00, 0.1,15.4
2023/05/16 07:20:00, 0.0,15.9
2023/05/16 07:30:00, 0.0,16.8
2023/05/16 07:40:00, 0.0,17.3
2023/05/16 07:50:00, 0.0,17.5
2023/05/16 08:00:00, 0.0,18.7
2023/05/16 08:10:00, 0.0,19.7
2023/05/16 08:20:00,---,20.4
2023/05/16 08:30:00, 0.0,20.8
2023/05/16 08:40:00,---,21.6
2023/05/16 08:50:00,---,23.4
2023/05/16 09:00:00, 0.0,23.7
2023/05/16 09:10:00,---,22.9
2023/05/16 09:20:00, 0.0,22.9
2023/05/16 09:30:00, 0.0,23.0
2023/05/16 09:40:00, 0.0,23.7
2023/05/16 09:50:00, 0.0,23.5
2023/05/16 10:00:00,---,23.5
2023/05/16 10:10:00, 0.0,23.7
2023/05/16 10:20:00, 0.0,24.5
2023/05/16 10:30:00,---,24.3
2023/05/16 10:40:00,---,24.9
2023/05/16 10:50:00, 0.0,24.5
2023/05/16 11:00:00,---,25.2
2023/05/16 11:10:00,---,25.0
2023/05/16 11:20:00, 0.0,25.2
2023/05/16 11:30:00,---,24.7
2023/05/16 11:40:00,22.8,24.9
2023/05/16 11:50:00, 2.5,25.7
2023/05/16 12:00:00,---,26.0
2023/05/16 12:10:00, 0.0,26.4
2023/05/16 12:20:00, 0.5,25.8
2023/05/16 12:30:00,---,25.8
2023/05/16 12:40:00,---,27.3
2023/05/16 12:50:00,---,27.9
2023/05/16 13:00:00, 0.0,28.1
2023/05/16 13:10:00, 0.0,27.6
2023/05/16 13:20:00,---,28.0
2023/05/16 13:30:00, 0.0,27.7
2023/05/16 13:40:00, 0.0,28.1
2023/05/16 13:50:00, 0.0,28.2
2023/05/16 14:00:00, 0.0,29.2
2023/05/16 14:10:00, 0.0,26.7
2023/05/16 14:20:00, 0.0,26.9
2023/05/16 14:30:00, 0.0,29.5
2023/05/16 14:40:00,---,30.1
2023/05/16 14:50:00, 0.0,31.3
2023/05/16 15:00:00, 0.0,29.6
2023/05/16 15:10:00, 0.0,32.8
2023/05/16 15:20:00, 0.0,31.8
2023/05/16 15:30:00, 0.0,33.0
2023/05/16 15:40:00, 0.0,32.5
2023/05/16 15:50:00, 0.0,32.0
2023/05/16 16:00:00, 0.0,31.6
2023/05/16 16:10:00, 0.0,31.5
2023/05/16 16:20:00, 0.0,31.0
2023/05/16 16:30:00, 0.0,28.7
2023/05/16 16:40:00, 0.0,30.0
2023/05/16 16:50:00, 0.0,28.6
2023/05/16 17:00:00, 0.1,29.0
2023/05/16 17:10:00, 0.0,28.8
2023/05/16 17:20:00, 0.3,27.7
2023/05/16 17:30:00, 0.0,26.3
2023/05/16 17:40:00, 0.0,24.8
2023/05/16 17:50:00, 0.0,22.1
2023/05/16 18:00:00, 0.1,21.3
2023/05/16 18:10:00, 0.1,20.8
2023/05/16 18:20:00, 0.4,20.5
2023/05/16 18:30:00, 1.0,19.8
2023/05/16 18:40:00, 2.2,19.4
2023/05/16 18:50:00, 1.8,19.5
2023/05/16 19:00:00, 0.0,18.4
2023/05/16 19:10:00, 0.0,17.9
2023/05/16 19:20:00, 1.5,17.8
2023/05/16 19:30:00, 0.8,17.6
2023/05/16 19:40:00, 0.6,17.7
2023/05/16 19:50:00,---,17.7
2023/05/16 20:00:00, 0.0,17.4
2023/05/16 20:10:00,20.8,17.1
2023/05/16 20:20:00,21.3,17.2
2023/05/16 20:30:00,21.7,17.1
2023/05/16 20:40:00,22.1,17.0
2023/05/16 20:50:00,22.0,17.3
2023/05/16 21:00:00,21.7,17.2
2023/05/16 21:10:00,21.9,16.9
2023/05/16 21:20:00,---,17.2
2023/05/16 21:30:00, 0.0,16.8
2023/05/16 21:40:00, 1.1,17.0
2023/05/16 21:50:00, 1.0,16.9
2023/05/16 22:00:00, 0.6,16.8
2023/05/16 22:10:00, 0.6,17.3
2023/05/16 22:20:00, 0.6,17.2
2023/05/16 22:30:00, 0.6,16.0
2023/05/16 22:40:00, 0.8,16.4
2023/05/16 22:50:00, 0.8,16.3
2023/05/16 23:00:00, 0.8,16.5
2023/05/16 23:10:00, 0.7,16.5
2023/05/16 23:20:00, 0.8,16.6
2023/05/16 23:30:00, 0.8,15.9
2023/05/16 23:40:00,14.1,16.7
2023/05/16 23:50:00,14.8,16.5
